Weather in Pyazhiyeva Sel'ga

Russia / Republic of Karelia     61°28′56″N   34°29′25″E
temp.,
°C
wind,
m/s
gust,
m/s
humid.,
%
clouds,
%
prec.,
mm/h
press.,
hPa
HPBL,
m
20 june, sun
sun2000:00+17wsw23670 0.0 101843
03:00+16sw35710 0.0 101882
06:00+20sw26671 0.0 1017150
09:00+26sw47480 0.0 10171280
12:00+28wsw57360 0.0 10162133
15:00+29wsw68330 0.0 10152090
18:00+28wsw48380 0.0 10152024
21:00+23sw25600 0.0 1015107
21 june, mon
mon2100:00+19sw377111 0.0 1015113
03:00+17wsw37698 0.0 1016112
06:00+21wsw310615 0.0 1017258
09:00+26sw46460 0.0 1016771
12:00+30wsw35340 0.0 10162323
15:00+31wsw463012 0.0 10162912
18:00+30wsw47350 0.0 10151934
21:00+25ssw22590 0.0 101521
22 june, tue
tue2200:00+22sw357055 0.0 101673
03:00+18sw3109094 0.6 1017183
06:00+20sw398512 0.3 1017218
09:00+27sw235159 0.4 1017625
12:00+31ssw244036 0.0 10172038
15:00+32ssw343348 0.0 10162877
18:00+32ssw353540 0.2 10152329
21:00+26ssw27535 0.2 1015145
23 june, wed
wed2300:00+22ssw39641 0.0 1015163
03:00+21sw396797 0.0 1016169
06:00+22sw31068100 0.0 1016316
09:00+26sw476179 0.0 1016509
12:00+30sw584329 0.0 10162162
15:00+30wsw584480 0.1 10162094
18:00+30wsw511435 0.0 10162145
21:00+26sw59572 0.0 1016719
24 june, thu
thu2400:00+20wsw3118211 0.1 1017258
03:00+19wsw399526 0.1 1017204
06:00+20sw396899 0.0 1015289
09:00+25wsw474676 0.0 1015607
12:00+28wsw363667 0.0 10151373
15:00+27sw454389 0.1 10141034
18:00+29wsw343910 0.0 10131584
21:00+24wsw236010 0.0 101248